• en France
  • Liste des pays
  • À 7 jours
  • Température de l'eau
  • Carte satellitaire
  • Carte météo
  • Widgets météo
  • user-avatar
    Se connecter

    Météo par heure à Ibagué

    Ce jour, 14 Décembre, Jeudi

    Heure Température Précipitation Vent Pression Humidité
    00:00 +19°C° 0 mm 1 m/s 648 mmHg 85%
    01:00 +19°C° 0 mm 1 m/s 648 mmHg 86%
    02:00 +19°C° 0 mm 1 m/s 648 mmHg 87%
    03:00 +18°C° 0 mm 1 m/s 648 mmHg 88%
    04:00 +18°C° 0 mm 1 m/s 648 mmHg 89%
    05:00 +19°C° 0 mm 1 m/s 648 mmHg 87%
    06:00 +19°C° 0 mm 1 m/s 649 mmHg 84%
    07:00 +20°C° 0 mm 1 m/s 649 mmHg 79%
    08:00 +22°C° 0 mm 1 m/s 649 mmHg 70%
    09:00 +24°C° 0 mm 1 m/s 650 mmHg 61%
    10:00 +26°C° 0 mm 2 m/s 650 mmHg 52%
    11:00 +26°C° 0 mm 2 m/s 650 mmHg 50%
    12:00 +27°C° 0 mm 2 m/s 650 mmHg 48%
    13:00 +28°C° 0 mm 2 m/s 649 mmHg 46%
    14:00 +28°C° 0 mm 2 m/s 649 mmHg 46%
    15:00 +28°C° 0 mm 2 m/s 648 mmHg 46%
    16:00 +28°C° 0 mm 1 m/s 648 mmHg 46%
    17:00 +25°C° 0 mm 1 m/s 648 mmHg 54%
    18:00 +23°C° 0 mm 1 m/s 648 mmHg 62%
    19:00 +21°C° 0 mm 1 m/s 647 mmHg 70%
    20:00 +20°C° 0 mm 1 m/s 648 mmHg 68%
    21:00 +20°C° 0 mm 1 m/s 648 mmHg 65%
    22:00 +18°C° 0 mm 2 m/s 649 mmHg 63%
    23:00 +19°C° 0 mm 1 m/s 649 mmHg 59%

    Demain, 15 Décembre, Vendredi

    Heure Température Précipitation Vent Pression Humidité
    00:00 +19°C° 0 mm 1 m/s 648 mmHg 54%
    01:00 +18°C° 0 mm 1 m/s 648 mmHg 50%
    02:00 +18°C° 0 mm 1 m/s 648 mmHg 49%
    03:00 +18°C° 0 mm 1 m/s 648 mmHg 48%
    04:00 +18°C° 0 mm 1 m/s 648 mmHg 47%
    05:00 +18°C° 0 mm 1 m/s 648 mmHg 48%
    06:00 +19°C° 0 mm 1 m/s 649 mmHg 49%
    07:00 +19°C° 0 mm 1 m/s 649 mmHg 49%
    08:00 +22°C° 0 mm 1 m/s 650 mmHg 45%
    09:00 +24°C° 0 mm 2 m/s 650 mmHg 41%
    10:00 +27°C° 0 mm 2 m/s 651 mmHg 37%
    11:00 +28°C° 0 mm 2 m/s 650 mmHg 36%
    12:00 +29°C° 0 mm 2 m/s 650 mmHg 34%
    13:00 +30°C° 0 mm 2 m/s 650 mmHg 33%
    14:00 +30°C° 0 mm 2 m/s 649 mmHg 34%
    15:00 +29°C° 0 mm 2 m/s 648 mmHg 35%
    16:00 +29°C° 0 mm 1 m/s 648 mmHg 37%
    17:00 +26°C° 0 mm 1 m/s 648 mmHg 44%
    18:00 +24°C° 0 mm 1 m/s 647 mmHg 52%
    19:00 +21°C° 0 mm 1 m/s 647 mmHg 59%
    20:00 +21°C° 0 mm 1 m/s 648 mmHg 58%
    21:00 +20°C° 0 mm 1 m/s 648 mmHg 57%
    22:00 +20°C° 0 mm 1 m/s 649 mmHg 57%
    23:00 +20°C° 0 mm 1 m/s 649 mmHg 55%

    Après-demain, 16 Décembre, Samedi

    Heure Température Précipitation Vent Pression Humidité
    00:00 +19°C° 0 mm 1 m/s 648 mmHg 53%
    01:00 +19°C° 0 mm 1 m/s 648 mmHg 51%
    02:00 +19°C° 0 mm 1 m/s 648 mmHg 51%
    03:00 +18°C° 0 mm 1 m/s 648 mmHg 51%
    04:00 +18°C° 0 mm 1 m/s 647 mmHg 51%
    05:00 +19°C° 0 mm 1 m/s 648 mmHg 51%
    06:00 +19°C° 0 mm 1 m/s 648 mmHg 51%
    07:00 +20°C° 0 mm 1 m/s 649 mmHg 51%
    08:00 +22°C° 0 mm 1 m/s 650 mmHg 47%
    09:00 +25°C° 0 mm 1 m/s 650 mmHg 43%
    10:00 +27°C° 0 mm 1 m/s 651 mmHg 38%
    11:00 +28°C° 0 mm 1 m/s 651 mmHg 37%
    12:00 +29°C° 0 mm 1 m/s 650 mmHg 36%
    13:00 +30°C° 0 mm 1 m/s 650 mmHg 35%
    14:00 +29°C° 0 mm 1 m/s 649 mmHg 37%
    15:00 +29°C° 0 mm 1 m/s 648 mmHg 39%
    16:00 +28°C° 0 mm 1 m/s 648 mmHg 40%
    17:00 +26°C° 0 mm 1 m/s 647 mmHg 48%
    18:00 +24°C° 0 mm 1 m/s 647 mmHg 56%
    19:00 +21°C° 0 mm 1 m/s 647 mmHg 63%
    20:00 +21°C° 0 mm 1 m/s 647 mmHg 63%
    21:00 +20°C° 0 mm 1 m/s 648 mmHg 64%
    22:00 +20°C° 0 mm 1 m/s 648 mmHg 64%
    23:00 +19°C° 0 mm 1 m/s 648 mmHg 63%

    17 Décembre, Dimanche

    Heure Température Précipitation Vent Pression Humidité
    00:00 +19°C° 0 mm 1 m/s 648 mmHg 63%
    01:00 +19°C° 0 mm 1 m/s 647 mmHg 62%
    02:00 +18°C° 0 mm 1 m/s 647 mmHg 61%
    03:00 +18°C° 0 mm 1 m/s 647 mmHg 60%
    04:00 +18°C° 0 mm 1 m/s 647 mmHg 59%
    05:00 +18°C° 0 mm 1 m/s 647 mmHg 58%
    06:00 +19°C° 0 mm 1 m/s 648 mmHg 56%
    07:00 +19°C° 0 mm 1 m/s 649 mmHg 54%
    08:00 +22°C° 0 mm 1 m/s 649 mmHg 48%
    09:00 +24°C° 0 mm 1 m/s 650 mmHg 43%
    10:00 +27°C° 0 mm 1 m/s 651 mmHg 37%
    11:00 +28°C° 0 mm 2 m/s 650 mmHg 35%
    12:00 +29°C° 0 mm 2 m/s 650 mmHg 33%
    13:00 +30°C° 0 mm 2 m/s 649 mmHg 32%
    14:00 +30°C° 0 mm 2 m/s 649 mmHg 33%
    15:00 +29°C° 0 mm 1 m/s 648 mmHg 33%
    16:00 +29°C° 0 mm 1 m/s 647 mmHg 34%
    17:00 +26°C° 0 mm 1 m/s 647 mmHg 41%
    18:00 +23°C° 0 mm 1 m/s 647 mmHg 48%
    19:00 +20°C° 0 mm 2 m/s 647 mmHg 55%
    20:00 +19°C° 0 mm 2 m/s 648 mmHg 49%
    21:00 +19°C° 0 mm 2 m/s 648 mmHg 44%
    22:00 +19°C° 0 mm 2 m/s 648 mmHg 39%
    23:00 +18°C° 0 mm 2 m/s 648 mmHg 35%

    18 Décembre, Lundi

    Heure Température Précipitation Vent Pression Humidité
    00:00 +18°C° 0 mm 2 m/s 648 mmHg 32%
    01:00 +17°C° 0 mm 2 m/s 648 mmHg 29%
    02:00 +17°C° 0 mm 2 m/s 647 mmHg 29%
    03:00 +18°C° 0 mm 1 m/s 647 mmHg 29%
    04:00 +16°C° 0 mm 1 m/s 647 mmHg 29%
    05:00 +18°C° 0 mm 1 m/s 648 mmHg 31%
    06:00 +18°C° 0 mm 1 m/s 648 mmHg 33%
    07:00 +19°C° 0 mm 1 m/s 649 mmHg 35%
    08:00 +21°C° 0 mm 1 m/s 649 mmHg 34%
    09:00 +24°C° 0 mm 1 m/s 650 mmHg 32%
    10:00 +27°C° 0 mm 2 m/s 651 mmHg 31%
    11:00 +28°C° 0 mm 2 m/s 650 mmHg 29%
    12:00 +29°C° 0 mm 2 m/s 650 mmHg 26%
    13:00 +30°C° 0 mm 2 m/s 649 mmHg 24%
    14:00 +30°C° 0 mm 2 m/s 649 mmHg 24%
    15:00 +29°C° 0 mm 1 m/s 648 mmHg 24%
    16:00 +29°C° 0 mm 1 m/s 647 mmHg 24%
    17:00 +26°C° 0 mm 1 m/s 647 mmHg 30%
    18:00 +23°C° 0 mm 1 m/s 647 mmHg 35%
    19:00 +19°C° 0 mm 2 m/s 647 mmHg 41%
    20:00 +19°C° 0 mm 2 m/s 648 mmHg 38%
    21:00 +18°C° 0 mm 2 m/s 648 mmHg 34%
    22:00 +18°C° 0 mm 2 m/s 649 mmHg 31%
    23:00 +17°C° 0 mm 2 m/s 649 mmHg 29%

    19 Décembre, Mardi

    Heure Température Précipitation Vent Pression Humidité
    00:00 +17°C° 0 mm 2 m/s 648 mmHg 27%
    01:00 +18°C° 0 mm 1 m/s 648 mmHg 25%
    02:00 +16°C° 0 mm 1 m/s 648 mmHg 25%
    03:00 +16°C° 0 mm 1 m/s 647 mmHg 25%
    04:00 +15°C° 0 mm 1 m/s 647 mmHg 25%
    05:00 +16°C° 0 mm 1 m/s 648 mmHg 27%
    06:00 +16°C° 0 mm 1 m/s 648 mmHg 28%
    07:00 +18°C° 0 mm 1 m/s 649 mmHg 30%
    08:00 +21°C° 0 mm 1 m/s 649 mmHg 27%
    09:00 +24°C° 0 mm 1 m/s 650 mmHg 24%
    10:00 +27°C° 0 mm 1 m/s 651 mmHg 22%
    11:00 +28°C° 0 mm 2 m/s 650 mmHg 21%
    12:00 +29°C° 0 mm 2 m/s 650 mmHg 21%
    13:00 +30°C° 0 mm 2 m/s 649 mmHg 20%
    14:00 +30°C° 0 mm 2 m/s 649 mmHg 21%
    15:00 +30°C° 0 mm 1 m/s 648 mmHg 22%
    16:00 +29°C° 0 mm 1 m/s 648 mmHg 23%
    17:00 +26°C° 0 mm 1 m/s 647 mmHg 29%
    18:00 +23°C° 0 mm 2 m/s 647 mmHg 35%
    19:00 +19°C° 0 mm 2 m/s 647 mmHg 41%
    20:00 +19°C° 0 mm 2 m/s 648 mmHg 39%
    21:00 +18°C° 0 mm 2 m/s 648 mmHg 38%
    22:00 +18°C° 0 mm 2 m/s 649 mmHg 36%
    23:00 +17°C° 0 mm 2 m/s 648 mmHg 33%
    Voir plus